SCP
-0 -0 -0 -0 -0 -0 -0 -0 -0 -0 -0 -0 0 0 -0 0 0 0 0 0 0 0 0 0 0 0 0 0 0 0 0 0 0 0 0 0 0 0 0 0 0 0 0 0 0
0 0 -0 -0 -0 0 0 0 -0 -0 -0 -0 0 0 0 0 0 0 0 0 0 0 0 0 0 0 0 0 0 0 0 0 0 0 0 0 0 0 0 0 0 0 0 0 0
0 0 0 0 0 0 0 0 0 0 0 0 0 -0 -0 -0 0 0 0 0 0 0 0 0 0 0 0 0 0 0 0 0 0 0 0 0 0 0 0 0 0 0 0 0 0
0 0 0 0 0 0 0 0 0 0 0 0 0 0 0 0 0 0 0 0 0 0 0 0 0 0 0 0 0 0 0 0 0 0 0 0 0 0 0 0 0 0 0 0 0
0 0 0 0 0 0 0 0 0 0 0 0 0 0 0 0 0 0 0 0 0 0 0 0 0 0 0 0 0 0 0 0 0 0 0 0 0 0 0 0 0 0 0 0 0
0 0 0 0 0 0 0 0 0 0 0 0 0 0 0 0 0 0 0 0 0 0 0 0 0 0 0 0 0 0 0 0 0 0 0 0 0 0 0 0 0 0 0 0 0
0 0 0 0 0 0 0 0 0 0 0 0 0 0 0 0 0 0 0 0 0 0 0 0 0 0 0 0 0 0 0 0 0 0 0 0 0 0 0 0 0 0 0 0 0
0 0 0 0 0 0 0 0 0 0 0 0 0 0 0 0 0 0 0 0 0 0 0 0 0 0 0 0 0 0 0 0 0 0 0 0 0 0 0 0 0 0 0 0 0
0 0 0 0 0 0 0 0 0 0 0 0 0 0 0 0 0 0 0 0 0 0 0 0 0 0 0 0 0 0 0 0 0 0 0 0 0 0 0 0 0 0 0 0 0
0 0 0 0 0 0 0 0 0 0 0 0 0 0 0 0 0 0 0 0 0 0 0 0 0 0 0 0 0 0 0 0 0 0 0 0 0 0 0 0 0 0 0 0 0
0 0 0 0 0 0 0 0 0 0 0 0 0 0 0 0 0 0 0 0 0 0 0 0 0 0 0 0 0 0 0 0 0 0 0 0 0 0 0 0 0 0 0 0 0
0 0 0 0 0 0 0 0 0 0 0 0 0 0 0 0 0 0 0 0 0 0 0 0 0 0 0 0 0 0 0 0 0 0 0 0 0 0 0 0 0 0 0 0 0
0 0 0 0 0 0 0 0 0 0 0 0 0 0 0 0 0 0 0 0 0 0 0 0 0 0 0 0 0 0 0 0 0 0 0 0 0 0 0 0 0 0 0 0 0
0 0 0 0 0 0 0 0 0 0 0 0 0 0 0 0 0 0 0 0 0 0 0 0 0 0 0 0 0 0 0 0 0 0 0 0 -0 0 0 0 0 0 0 0 0
0 0 0 0 0 0 0 0 0 0 0 0 0 0 0 0 0 0 0 0 0 0 0 0 0 0 0 0 0 0 0 0 0 0 0 0 0 0 0 0 0 0 0 0 0
0 0 0 0 0 0 0 0 0 0 0 0 0 0 0 0 0 0 0 0 0 0 0 0 0 0 0 0 0 0 0 0 0 0 0 0 0 0 0 0 0 0 0 0 0
0 0 0 0 0 0 0 0 0 0 0 0 0 0 0 0 0 0 0 0 0 0 0 0 0 0 0 0 0 0 0 0 0 0 0 0 0 0 0 0 0 0 0 0 0
0 0 0 0 0 0 0 0 0 0 0 0 0 0 0 0 0 0 0 0 0 0 0 0 0 0 0 0 0 0 0 0 0 0 0 0 0 0 0 0 0 0 0 0 0
0 0 0 0 0 0 0 0 0 0 0 0 0 0 0 0 0 0 0 0 0 0 0 0 0 0 0 0 0 0 0 0 0 0 0 0 0 0 0 0 0 0 0 0 0
0 0 0 0 0 0 0 0 0 0 0 0 0 0 0 0 0 0 0 0 0 0 0 0 0 0 0 0 0 0 0 0 0 0 0 0 0 0 0 0 0 0 0 0 0
0 0 0 0 0 0 0 0 0 0 0 0 0 0 0 0 0 0 0 0 0 0 0 0 0 0 0 0 0 0 0 0 0 0 0 0 0 0 0 0 0 0 0 0 0
0 0 0 0 0 0 0 0 0 0 0 0 0 0 0 0 0 0 0 0 0 0 0 0 0 0 0 0 0 0 0 0 0 0 0 0 0 0 0 0 0 0 0 0 0
0 0 0 0 0 0 0 0 0 0 0 0 0 0 0 0 0 0 0 0 0 0 0 0 0 0 0 0 0 0 0 0 0 0 0 0 0 0 0 0 0 0 0 0 0
0 0 0 0 0 0 0 0 0 0 0 0 0 0 0 0 0 0 0 0 0 0 0 0 0 0 0 0 0 0 0 0 0 0 0 0 0 0 0 0 0 0 0 0 0
0 0 0 0 0 0 0 0 0 0 0 0 0 0 0 0 0 0 0 0 0 0 0 0 0 0 0 0 0 0 0 0 0 0 0 0 0 0 0 0 0 0 0 0 0
0 0 0 0 0 0 0 0 0 0 0 0 0 0 0 0 0 0 0 0 0 0 0 0 0 0 0 0 0 0 0 0 0 0 0 0 0 0 0 0 0 0 0 0 0
0 0 0 0 0 0 0 0 0 0 0 0 0 0 0 0 0 0 0 0 0 0 0 0 0 0 0 0 0 0 0 0 0 0 0 0 0 0 0 0 0 0 0 0 0
Wind_Speed_500mb
13 13 16 17 18 21 23 26 28 30 28 25 13 2 6 8 6 3 7 9 10 11 13 9 10 7 9 5 6 7 8 3 7 10 6 18 7 13 10 10 26 28 22 14 42
15 17 17 18 20 21 22 23 25 26 27 23 20 8 5 5 5 4 9 6 5 8 11 12 13 8 8 4 3 7 7 12 9 9 5 13 13 19 11 15 22 34 40 29 37
18 19 20 21 22 23 25 25 25 26 25 24 18 13 9 10 13 11 10 7 3 5 9 11 14 5 7 6 3 4 8 7 6 12 5 9 8 15 14 11 37 44 51 41 47
22 23 23 24 25 25 27 29 28 28 29 29 24 14 10 9 8 11 12 8 3 1 5 8 9 5 5 5 2 1 4 6 6 8 8 9 9 12 35 34 24 27 32 47 55
27 29 29 28 29 28 27 29 32 30 30 29 28 23 15 13 16 16 18 13 8 4 3 5 8 4 5 6 3 4 4 7 11 15 14 13 21 16 40 40 50 34 33 48 58
32 33 34 34 34 34 33 31 33 34 32 32 29 25 18 13 15 17 21 20 15 9 7 3 3 4 9 3 5 4 9 17 12 17 13 10 9 3 16 10 32 45 46 53 62
38 38 39 39 39 39 39 36 36 37 35 33 31 23 28 31 21 21 24 23 21 14 10 3 1 1 6 5 1 1 7 11 8 5 7 11 15 20 47 35 34 39 48 55 64
41 41 43 44 44 44 42 41 40 38 37 36 28 20 18 23 21 26 24 22 21 15 10 6 2 5 4 6 6 4 7 5 5 9 4 12 19 17 25 32 42 45 51 60 67
43 43 44 44 47 49 47 45 43 40 38 29 20 16 14 18 22 28 26 21 19 13 9 6 3 4 6 7 8 11 7 7 13 18 5 12 19 12 18 30 46 52 60 67 71
46 46 44 43 45 49 50 48 42 35 27 17 19 9 21 13 16 24 29 22 16 11 7 7 3 6 6 6 10 11 8 10 13 9 9 10 32 34 40 47 71 69 71 72 79
49 47 46 42 42 44 47 39 15 10 10 15 8 14 12 15 13 19 26 26 17 9 9 3 4 15 22 16 5 6 9 14 10 9 8 20 32 38 63 44 56 69 68 74 84
51 49 45 41 40 37 36 22 18 13 20 26 40 50 51 39 18 28 28 20 16 15 12 7 22 18 10 8 9 7 7 15 14 3 12 17 34 34 35 51 63 64 60 73 69
53 51 45 37 36 33 27 22 14 12 9 19 35 33 34 38 20 22 34 20 11 13 15 17 8 13 12 7 12 10 13 10 16 10 7 14 19 15 13 26 61 64 65 60 62
48 50 44 31 27 21 12 6 5 9 5 14 11 12 15 13 11 21 37 16 6 20 19 14 6 13 8 13 15 9 11 5 6 6 8 7 28 7 13 21 18 45 48 55 54
38 45 39 32 13 13 8 4 2 4 10 10 7 9 19 15 7 9 31 15 14 14 14 15 15 9 10 15 18 12 6 7 2 5 5 7 9 6 8 15 33 18 44 43 40
30 32 35 28 31 25 17 8 7 8 15 8 10 8 7 9 6 9 10 8 4 8 5 10 0 12 11 6 3 11 8 7 7 4 4 17 20 10 12 18 15 17 46 35 25
29 27 29 27 24 25 22 17 4 11 7 10 10 9 4 11 8 12 11 11 12 9 12 2 10 6 8 9 6 5 10 9 10 4 17 9 5 31 13 21 23 23 43 32 32
36 36 32 26 35 25 33 6 19 15 17 6 7 5 13 16 10 13 11 9 14 4 7 11 19 19 11 15 15 13 16 13 17 8 33 4 17 21 32 41 36 46 49 42 35
47 48 46 35 38 34 29 13 19 19 17 19 7 8 10 10 12 12 18 14 20 32 20 15 19 4 1 5 7 11 11 5 10 4 7 12 31 12 13 20 14 42 39 46 42
66 63 70 41 39 39 6 41 17 19 15 9 30 24 23 18 17 18 20 12 13 31 18 9 10 5 6 6 3 9 9 7 4 6 12 30 53 38 23 28 21 22 44 64 43
76 31 27 49 53 32 18 20 12 28 25 17 21 14 18 20 18 15 17 10 18 11 20 12 11 6 7 19 26 7 6 3 5 9 11 23 31 13 15 20 23 26 43 43 33
52 10 41 77 33 20 27 16 20 11 40 21 11 20 25 19 16 15 21 21 37 20 21 12 11 17 32 3 3 4 22 27 12 16 9 4 54 7 7 15 15 18 22 30 35
27 36 53 81 16 21 7 8 14 14 19 21 24 17 13 17 10 19 22 16 34 20 22 18 8 6 18 3 7 12 14 16 2 2 40 15 52 13 11 16 31 28 33 42 46
26 8 15 50 42 30 30 18 18 22 33 12 12 16 6 12 24 19 14 11 33 19 3 34 15 23 40 33 10 11 16 35 42 33 42 56 70 76 68 43 31 31 53 67 61
29 11 29 13 36 35 30 17 43 22 20 43 16 45 34 29 32 45 25 16 6 4 2 17 25 25 44 48 18 9 15 37 40 60 43 59 46 74 72 43 53 73 72 74 66
35 13 22 15 49 44 45 39 52 43 22 23 43 35 46 48 49 40 33 21 13 3 12 6 25 27 47 52 34 33 42 49 50 66 50 46 61 90 61 71 73 83 77 74 76
59 73 25 30 27 25 44 61 56 51 41 64 44 36 34 62 78 80 51 28 20 14 15 16 10 14 49 49 22 10 63 55 59 76 55 59 85 72 56 49 59 77 76 91 83
Wind_Direction_500mb
350 356 360 3 5 8 11 13 17 21 24 19 16 6 44 65 86 142 112 100 73 62 50 39 18 124 134 95 98 119 71 215 233 158 243 168 157 184 212 186 192 205 216 217 188
331 334 339 344 347 349 352 359 1 9 12 16 7 340 279 276 294 211 171 134 79 35 30 27 36 132 122 102 70 95 114 217 196 202 258 187 193 190 187 209 225 230 231 223 197
313 316 321 324 330 334 336 339 345 347 354 359 1 343 300 285 283 225 191 168 116 27 16 17 19 118 113 123 25 148 170 213 232 233 238 184 226 194 191 230 229 231 233 218 205
311 312 315 318 319 322 325 325 327 331 335 340 340 336 295 273 232 209 208 200 189 6 4 4 5 84 94 112 119 146 210 219 281 222 189 195 195 219 218 243 257 258 254 224 208
301 307 311 314 316 316 317 316 316 319 321 323 327 324 300 267 259 237 219 221 228 266 312 358 26 81 125 142 126 175 235 240 263 246 242 246 240 240 255 260 254 253 238 224 215
291 296 301 305 308 311 314 315 310 309 311 312 314 310 290 249 255 237 232 236 241 249 259 334 50 29 124 121 143 184 275 274 274 248 249 236 271 262 248 251 247 243 240 225 218
291 295 298 301 304 307 309 311 309 305 305 303 304 294 278 272 255 238 233 234 236 240 255 244 131 60 154 131 142 175 319 321 244 227 247 213 284 233 255 261 256 241 237 228 222
283 288 293 299 302 304 305 307 306 303 299 297 292 279 261 259 248 239 231 227 227 233 241 228 180 131 126 131 47 97 60 19 232 170 213 158 266 266 253 247 251 244 236 227 224
279 282 288 296 302 304 306 307 306 303 296 289 275 246 256 251 238 231 223 224 223 231 229 223 224 132 115 87 6 360 253 230 300 206 151 179 270 244 248 245 254 250 241 231 227
279 282 286 293 299 303 307 310 310 300 283 274 243 239 239 231 223 220 220 220 218 209 195 202 150 72 43 96 242 230 243 247 239 217 211 223 256 273 259 262 264 260 251 239 236
272 277 283 290 295 301 306 322 309 295 258 225 214 248 268 233 234 225 216 215 215 197 172 109 116 211 213 204 173 170 204 236 249 227 213 242 253 258 272 254 257 258 249 252 247
266 270 276 284 290 298 307 310 297 279 301 262 253 253 254 255 251 229 210 190 180 196 131 50 234 196 138 149 159 171 214 259 284 256 195 271 261 261 253 258 260 259 251 260 259
268 268 268 275 282 291 294 292 286 301 261 277 251 247 248 241 229 228 199 202 169 176 187 180 219 111 134 154 165 205 194 228 236 337 259 304 264 233 282 247 263 259 258 261 256
270 266 266 266 278 272 275 267 297 333 36 265 226 221 204 182 250 209 194 190 201 213 159 228 209 160 164 215 150 233 211 216 290 21 255 11 295 235 237 266 255 265 250 254 251
286 277 263 246 218 227 215 187 343 343 295 273 206 187 169 181 141 206 193 199 184 182 139 236 164 159 188 218 165 224 120 139 113 215 13 247 268 222 25 269 264 265 263 252 252
295 291 278 248 226 225 215 186 136 45 248 286 167 184 141 200 194 143 176 192 123 142 264 253 283 170 198 69 131 136 98 71 66 101 255 224 201 159 184 212 259 263 259 259 248
284 297 285 241 216 214 195 163 56 196 295 233 210 170 192 190 210 176 169 183 174 132 227 259 208 174 165 104 28 107 69 324 316 342 250 133 232 257 231 229 219 229 244 247 266
264 269 276 263 209 188 172 67 221 192 196 86 122 112 195 160 218 177 153 214 239 114 132 188 265 179 183 196 181 174 167 167 245 244 288 66 244 275 218 240 231 240 261 262 247
246 252 252 260 202 184 173 212 216 177 191 165 116 176 235 239 192 155 208 201 204 177 193 182 266 111 199 140 142 182 188 169 96 131 306 244 265 280 214 254 251 247 240 245 251
231 235 243 250 202 182 170 235 211 191 151 155 202 186 202 198 174 189 180 194 214 194 193 222 281 179 156 137 54 178 154 82 2 254 254 269 274 272 219 236 236 245 232 246 245
225 219 227 207 180 183 217 226 218 209 192 173 218 234 215 191 199 204 221 228 199 186 187 159 166 212 135 206 172 138 202 192 188 162 203 269 273 176 186 199 212 239 249 238 226
209 226 183 172 170 202 225 197 199 229 219 238 195 217 217 184 210 228 219 223 182 146 161 202 169 227 240 96 48 175 198 184 196 235 243 149 269 356 350 214 207 238 242 214 258
211 212 186 174 198 208 246 270 228 190 197 196 218 197 185 198 236 193 230 185 176 158 168 175 219 251 268 338 5 212 199 219 275 293 229 205 258 151 173 219 224 251 249 253 261
202 164 180 215 225 215 213 219 232 222 235 221 219 182 159 225 226 250 207 195 201 191 306 171 177 214 239 253 125 189 198 217 217 240 242 233 257 276 262 273 271 261 276 270 263
223 191 182 195 228 227 222 212 227 216 208 202 239 230 217 235 236 241 257 250 104 12 94 168 237 235 252 262 248 211 232 228 220 237 233 254 249 258 271 266 271 271 268 269 268
233 157 193 234 215 220 219 221 238 242 178 214 220 221 226 236 236 254 231 229 197 221 180 175 246 252 255 259 264 244 250 256 246 248 258 258 263 258 277 280 282 277 275 274 271
248 242 218 213 206 201 216 226 230 238 241 236 228 224 225 228 225 244 265 207 207 210 206 188 210 243 259 263 242 234 240 258 266 265 266 267 261 270 267 265 263 266 269 268 270
Wind_Speed_850mb
13 13 16 17 18 21 23 26 28 30 28 25 13 2 6 8 6 3 7 9 10 11 13 9 10 7 9 5 6 7 8 3 7 10 6 18 7 13 10 10 26 28 22 14 42
15 17 17 18 20 21 22 23 25 26 27 23 20 8 5 5 5 4 9 6 5 8 11 12 13 8 8 4 3 7 7 12 9 9 5 13 13 19 11 15 22 34 40 29 37
18 19 20 21 22 23 25 25 25 26 25 24 18 13 9 10 13 11 10 7 3 5 9 11 14 5 7 6 3 4 8 7 6 12 5 9 8 15 14 11 37 44 51 41 47
22 23 23 24 25 25 27 29 28 28 29 29 24 14 10 9 8 11 12 8 3 1 5 8 9 5 5 5 2 1 4 6 6 8 8 9 9 12 35 34 24 27 32 47 55
27 29 29 28 29 28 27 29 32 30 30 29 28 23 15 13 16 16 18 13 8 4 3 5 8 4 5 6 3 4 4 7 11 15 14 13 21 16 40 40 50 34 33 48 58
32 33 34 34 34 34 33 31 33 34 32 32 29 25 18 13 15 17 21 20 15 9 7 3 3 4 9 3 5 4 9 17 12 17 13 10 9 3 16 10 32 45 46 53 62
38 38 39 39 39 39 39 36 36 37 35 33 31 23 28 31 21 21 24 23 21 14 10 3 1 1 6 5 1 1 7 11 8 5 7 11 15 20 47 35 34 39 48 55 64
41 41 43 44 44 44 42 41 40 38 37 36 28 20 18 23 21 26 24 22 21 15 10 6 2 5 4 6 6 4 7 5 5 9 4 12 19 17 25 32 42 45 51 60 67
43 43 44 44 47 49 47 45 43 40 38 29 20 16 14 18 22 28 26 21 19 13 9 6 3 4 6 7 8 11 7 7 13 18 5 12 19 12 18 30 46 52 60 67 71
46 46 44 43 45 49 50 48 42 35 27 17 19 9 21 13 16 24 29 22 16 11 7 7 3 6 6 6 10 11 8 10 13 9 9 10 32 34 40 47 71 69 71 72 79
49 47 46 42 42 44 47 39 15 10 10 15 8 14 12 15 13 19 26 26 17 9 9 3 4 15 22 16 5 6 9 14 10 9 8 20 32 38 63 44 56 69 68 74 84
51 49 45 41 40 37 36 22 18 13 20 26 40 50 51 39 18 28 28 20 16 15 12 7 22 18 10 8 9 7 7 15 14 3 12 17 34 34 35 51 63 64 60 73 69
53 51 45 37 36 33 27 22 14 12 9 19 35 33 34 38 20 22 34 20 11 13 15 17 8 13 12 7 12 10 13 10 16 10 7 14 19 15 13 26 61 64 65 60 62
48 50 44 31 27 21 12 6 5 9 5 14 11 12 15 13 11 21 37 16 6 20 19 14 6 13 8 13 15 9 11 5 6 6 8 7 28 7 13 21 18 45 48 55 54
38 45 39 32 13 13 8 4 2 4 10 10 7 9 19 15 7 9 31 15 14 14 14 15 15 9 10 15 18 12 6 7 2 5 5 7 9 6 8 15 33 18 44 43 40
30 32 35 28 31 25 17 8 7 8 15 8 10 8 7 9 6 9 10 8 4 8 5 10 0 12 11 6 3 11 8 7 7 4 4 17 20 10 12 18 15 17 46 35 25
29 27 29 27 24 25 22 17 4 11 7 10 10 9 4 11 8 12 11 11 12 9 12 2 10 6 8 9 6 5 10 9 10 4 17 9 5 31 13 21 23 23 43 32 32
36 36 32 26 35 25 33 6 19 15 17 6 7 5 13 16 10 13 11 9 14 4 7 11 19 19 11 15 15 13 16 13 17 8 33 4 17 21 32 41 36 46 49 42 35
47 48 46 35 38 34 29 13 19 19 17 19 7 8 10 10 12 12 18 14 20 32 20 15 19 4 1 5 7 11 11 5 10 4 7 12 31 12 13 20 14 42 39 46 42
66 63 70 41 39 39 6 41 17 19 15 9 30 24 23 18 17 18 20 12 13 31 18 9 10 5 6 6 3 9 9 7 4 6 12 30 53 38 23 28 21 22 44 64 43
76 31 27 49 53 32 18 20 12 28 25 17 21 14 18 20 18 15 17 10 18 11 20 12 11 6 7 19 26 7 6 3 5 9 11 23 31 13 15 20 23 26 43 43 33
52 10 41 77 33 20 27 16 20 11 40 21 11 20 25 19 16 15 21 21 37 20 21 12 11 17 32 3 3 4 22 27 12 16 9 4 54 7 7 15 15 18 22 30 35
27 36 53 81 16 21 7 8 14 14 19 21 24 17 13 17 10 19 22 16 34 20 22 18 8 6 18 3 7 12 14 16 2 2 40 15 52 13 11 16 31 28 33 42 46
26 8 15 50 42 30 30 18 18 22 33 12 12 16 6 12 24 19 14 11 33 19 3 34 15 23 40 33 10 11 16 35 42 33 42 56 70 76 68 43 31 31 53 67 61
29 11 29 13 36 35 30 17 43 22 20 43 16 45 34 29 32 45 25 16 6 4 2 17 25 25 44 48 18 9 15 37 40 60 43 59 46 74 72 43 53 73 72 74 66
35 13 22 15 49 44 45 39 52 43 22 23 43 35 46 48 49 40 33 21 13 3 12 6 25 27 47 52 34 33 42 49 50 66 50 46 61 90 61 71 73 83 77 74 76
59 73 25 30 27 25 44 61 56 51 41 64 44 36 34 62 78 80 51 28 20 14 15 16 10 14 49 49 22 10 63 55 59 76 55 59 85 72 56 49 59 77 76 91 83
Wind_Direction_850mb
350 356 360 3 5 8 11 13 17 21 24 19 16 6 44 65 86 142 112 100 73 62 50 39 18 124 134 95 98 119 71 215 233 158 243 168 157 184 212 186 192 205 216 217 188
331 334 339 344 347 349 352 359 1 9 12 16 7 340 279 276 294 211 171 134 79 35 30 27 36 132 122 102 70 95 114 217 196 202 258 187 193 190 187 209 225 230 231 223 197
313 316 321 324 330 334 336 339 345 347 354 359 1 343 300 285 283 225 191 168 116 27 16 17 19 118 113 123 25 148 170 213 232 233 238 184 226 194 191 230 229 231 233 218 205
311 312 315 318 319 322 325 325 327 331 335 340 340 336 295 273 232 209 208 200 189 6 4 4 5 84 94 112 119 146 210 219 281 222 189 195 195 219 218 243 257 258 254 224 208
301 307 311 314 316 316 317 316 316 319 321 323 327 324 300 267 259 237 219 221 228 266 312 358 26 81 125 142 126 175 235 240 263 246 242 246 240 240 255 260 254 253 238 224 215
291 296 301 305 308 311 314 315 310 309 311 312 314 310 290 249 255 237 232 236 241 249 259 334 50 29 124 121 143 184 275 274 274 248 249 236 271 262 248 251 247 243 240 225 218
291 295 298 301 304 307 309 311 309 305 305 303 304 294 278 272 255 238 233 234 236 240 255 244 131 60 154 131 142 175 319 321 244 227 247 213 284 233 255 261 256 241 237 228 222
283 288 293 299 302 304 305 307 306 303 299 297 292 279 261 259 248 239 231 227 227 233 241 228 180 131 126 131 47 97 60 19 232 170 213 158 266 266 253 247 251 244 236 227 224
279 282 288 296 302 304 306 307 306 303 296 289 275 246 256 251 238 231 223 224 223 231 229 223 224 132 115 87 6 360 253 230 300 206 151 179 270 244 248 245 254 250 241 231 227
279 282 286 293 299 303 307 310 310 300 283 274 243 239 239 231 223 220 220 220 218 209 195 202 150 72 43 96 242 230 243 247 239 217 211 223 256 273 259 262 264 260 251 239 236
272 277 283 290 295 301 306 322 309 295 258 225 214 248 268 233 234 225 216 215 215 197 172 109 116 211 213 204 173 170 204 236 249 227 213 242 253 258 272 254 257 258 249 252 247
266 270 276 284 290 298 307 310 297 279 301 262 253 253 254 255 251 229 210 190 180 196 131 50 234 196 138 149 159 171 214 259 284 256 195 271 261 261 253 258 260 259 251 260 259
268 268 268 275 282 291 294 292 286 301 261 277 251 247 248 241 229 228 199 202 169 176 187 180 219 111 134 154 165 205 194 228 236 337 259 304 264 233 282 247 263 259 258 261 256
270 266 266 266 278 272 275 267 297 333 36 265 226 221 204 182 250 209 194 190 201 213 159 228 209 160 164 215 150 233 211 216 290 21 255 11 295 235 237 266 255 265 250 254 251
286 277 263 246 218 227 215 187 343 343 295 273 206 187 169 181 141 206 193 199 184 182 139 236 164 159 188 218 165 224 120 139 113 215 13 247 268 222 25 269 264 265 263 252 252
295 291 278 248 226 225 215 186 136 45 248 286 167 184 141 200 194 143 176 192 123 142 264 253 283 170 198 69 131 136 98 71 66 101 255 224 201 159 184 212 259 263 259 259 248
284 297 285 241 216 214 195 163 56 196 295 233 210 170 192 190 210 176 169 183 174 132 227 259 208 174 165 104 28 107 69 324 316 342 250 133 232 257 231 229 219 229 244 247 266
264 269 276 263 209 188 172 67 221 192 196 86 122 112 195 160 218 177 153 214 239 114 132 188 265 179 183 196 181 174 167 167 245 244 288 66 244 275 218 240 231 240 261 262 247
246 252 252 260 202 184 173 212 216 177 191 165 116 176 235 239 192 155 208 201 204 177 193 182 266 111 199 140 142 182 188 169 96 131 306 244 265 280 214 254 251 247 240 245 251
231 235 243 250 202 182 170 235 211 191 151 155 202 186 202 198 174 189 180 194 214 194 193 222 281 179 156 137 54 178 154 82 2 254 254 269 274 272 219 236 236 245 232 246 245
225 219 227 207 180 183 217 226 218 209 192 173 218 234 215 191 199 204 221 228 199 186 187 159 166 212 135 206 172 138 202 192 188 162 203 269 273 176 186 199 212 239 249 238 226
209 226 183 172 170 202 225 197 199 229 219 238 195 217 217 184 210 228 219 223 182 146 161 202 169 227 240 96 48 175 198 184 196 235 243 149 269 356 350 214 207 238 242 214 258
211 212 186 174 198 208 246 270 228 190 197 196 218 197 185 198 236 193 230 185 176 158 168 175 219 251 268 338 5 212 199 219 275 293 229 205 258 151 173 219 224 251 249 253 261
202 164 180 215 225 215 213 219 232 222 235 221 219 182 159 225 226 250 207 195 201 191 306 171 177 214 239 253 125 189 198 217 217 240 242 233 257 276 262 273 271 261 276 270 263
223 191 182 195 228 227 222 212 227 216 208 202 239 230 217 235 236 241 257 250 104 12 94 168 237 235 252 262 248 211 232 228 220 237 233 254 249 258 271 266 271 271 268 269 268
233 157 193 234 215 220 219 221 238 242 178 214 220 221 226 236 236 254 231 229 197 221 180 175 246 252 255 259 264 244 250 256 246 248 258 258 263 258 277 280 282 277 275 274 271
248 242 218 213 206 201 216 226 230 238 241 236 228 224 225 228 225 244 265 207 207 210 206 188 210 243 259 263 242 234 240 258 266 265 266 267 261 270 267 265 263 266 269 268 270